Location: Newark
(42.7133°N, 87.7910°W)
Time: 12:10:16
(UTC+00:00)

Tiros 1 despin weight - All Passes

Search period start: 16 September 2019 00:00
Search period end: 26 September 2019 00:00
Orbit: 595 x 642 km, 48.2° (Epoch: 15 September)

Date Brightness Start Highest point End Pass type
(mag) Time Alt. Az. Time Alt. Az. Time Alt. Az.
16 Sep - 00:12:32 10° WNW 00:16:55 56° NNE 00:21:16 10° E daylight
16 Sep - 01:54:13 10° WNW 01:58:26 44° SW 02:02:37 10° SE visible
16 Sep - 17:46:10 10° SE 17:47:10 11° SE 17:48:09 10° ESE daylight
16 Sep - 19:23:35 10° SW 19:27:59 53° SSE 19:32:20 10° ENE daylight
16 Sep - 21:05:13 10° W 21:09:36 52° NNW 21:13:56 10° ENE daylight
16 Sep - 22:47:28 10° WNW 22:51:42 41° N 22:55:53 10° ENE daylight
17 Sep - 00:29:10 10° WNW 00:33:37 82° NNE 00:38:02 10° ESE visible
17 Sep - 02:11:14 10° W 02:14:48 24° SW 02:18:21 10° SSE visible
17 Sep - 17:59:58 10° S 18:03:23 21° SE 18:06:47 10° E daylight
17 Sep - 19:40:01 10° WSW 19:44:32 89° SSE 19:49:00 10° ENE daylight
17 Sep - 21:22:07 10° W 21:26:24 42° N 21:30:38 10° ENE daylight
17 Sep - 23:04:12 10° WNW 23:08:31 48° NNE 23:12:48 10° E daylight
18 Sep - 00:45:49 10° WNW 00:50:11 61° SSW 00:54:32 10° SE visible
18 Sep - 02:29:11 10° WSW 02:31:03 12° SW 02:32:55 10° SSW visible
18 Sep - 18:15:33 10° SSW 18:19:45 38° SE 18:23:54 10° ENE daylight
18 Sep - 19:56:44 10° W 20:01:12 62° NNW 20:05:37 10° ENE daylight
18 Sep - 21:39:01 10° WNW 21:43:14 40° N 21:47:26 10° ENE daylight
18 Sep - 23:20:50 10° WNW 23:25:16 65° NNE 23:29:39 10° ESE daylight
19 Sep - 01:02:38 10° WNW 01:06:38 34° SW 01:10:38 10° SSE visible
19 Sep - 16:52:45 10° SSE 16:55:16 15° SE 16:57:46 10° E daylight
19 Sep - 18:31:44 10° SW 18:36:14 68° SSE 18:40:40 10° ENE daylight
19 Sep - 20:13:36 10° W 20:17:58 47° NNW 20:22:16 10° ENE daylight
19 Sep - 21:55:48 10° WNW 22:00:05 43° N 22:04:19 10° E daylight
19 Sep - 23:37:27 10° WNW 23:41:55 82° SSW 23:46:19 10° ESE daylight
20 Sep - 01:19:53 10° W 01:22:57 18° SW 01:26:01 10° S visible
20 Sep - 17:07:41 10° SSW 17:11:33 27° SE 17:15:22 10° E daylight
20 Sep - 18:48:17 10° WSW 18:52:50 77° NNW 18:57:19 10° ENE daylight
20 Sep - 20:30:31 10° WNW 20:34:47 41° N 20:39:00 10° ENE daylight
20 Sep - 22:12:29 10° WNW 22:16:53 54° NNE 22:21:13 10° E daylight
20 Sep - 23:54:10 10° WNW 23:58:27 48° SW 00:02:40 10° SE daylight
21 Sep - 17:23:33 10° SW 17:27:57 49° SE 17:32:18 10° ENE daylight
21 Sep - 19:05:05 10° W 19:09:33 54° NNW 19:13:56 10° ENE daylight
21 Sep - 20:47:22 10° WNW 20:51:38 41° N 20:55:51 10° ENE daylight
21 Sep - 22:29:07 10° WNW 22:33:35 77° NNE 22:38:00 10° ESE daylight
22 Sep - 00:11:07 10° W 00:14:50 26° SW 00:18:31 10° SSE visible
22 Sep - 16:00:06 10° S 16:03:23 20° SE 16:06:39 10° E daylight
22 Sep - 17:39:55 10° WSW 17:44:29 83° SSE 17:49:00 10° ENE daylight
22 Sep - 19:22:00 10° W 19:26:20 44° N 19:30:37 10° ENE daylight
22 Sep - 21:04:07 10° WNW 21:08:28 47° NNE 21:12:45 10° E daylight
22 Sep - 22:45:46 10° WNW 22:50:11 67° SSW 22:54:34 10° SE daylight
23 Sep - 00:28:48 10° WSW 00:31:05 14° SW 00:33:22 10° SSW visible
23 Sep - 16:15:33 10° SSW 16:19:43 35° SE 16:23:52 10° ENE daylight
23 Sep - 17:56:36 10° WSW 18:01:08 66° NNW 18:05:37 10° ENE daylight
23 Sep - 19:38:54 10° WNW 19:43:10 40° N 19:47:24 10° ENE daylight
23 Sep - 21:20:46 10° WNW 21:25:14 62° NNE 21:29:37 10° E daylight
23 Sep - 23:02:33 10° WNW 23:06:39 37° SW 23:10:43 10° SSE daylight
24 Sep - 14:53:01 10° SSE 14:55:16 13° SE 14:57:30 10° ESE daylight
24 Sep - 16:31:39 10° SW 16:36:11 63° SSE 16:40:39 10° ENE daylight
24 Sep - 18:13:28 10° W 18:17:54 49° NNW 18:22:15 10° ENE daylight
24 Sep - 19:55:42 10° WNW 20:00:01 43° N 20:04:17 10° E daylight
24 Sep - 21:37:24 10° WNW 21:41:54 88° SSW 21:46:19 10° ESE daylight
24 Sep - 23:19:42 10° W 23:22:59 20° SW 23:26:15 10° S daylight
25 Sep - 15:07:44 10° SSW 15:11:32 25° SE 15:15:17 10° E daylight
25 Sep - 16:48:10 10° WSW 16:52:46 82° NNW 16:57:19 10° ENE daylight
25 Sep - 18:30:23 10° WNW 18:34:42 42° N 18:38:59 10° ENE daylight
25 Sep - 20:12:24 10° WNW 20:16:49 52° NNE 20:21:10 10° E daylight
25 Sep - 21:54:05 10° WNW 21:58:25 52° SW 22:02:43 10° SE daylight
25 Sep - 23:38:49 10° SW 23:39:11 10° SW 23:39:33 10° SW daylight
